[[{"header":{"parameterUnit":"m.s-1","parameterCategory":1,"la1":30.2991,"la2":30.254,"lo1":-89.0895,"lo2":-89.0444,"dy":0.0017,"dx":0.0017,"nx":28,"ny":28,"refTime":"2025-04-11T03:00:00:Z","depth":0,"parameterNumber":2,"parameterNumberName":"U-component_of_WINDS"},"data":[0,0,0,0,0,0,0,0,0,0,0,0,0,0,0,0,0,0,0,0,0,0,0,0,0,0,0,0,0,0,0,0,0,0,0,0,0,0,0,0,0,0,0,0,0,0,0,0,0,0,0,0,0,0,0,0,0,0,3.9365,3.9365,0,3.9402,3.9403,3.9403,3.9378,3.9376,3.9375,3.9374,3.9412,3.9414,3.9417,0,0,0,0,0,0,0,0,0,0,0,0,0,3.9273,3.9275,3.9365,3.9365,3.9366,3.9402,3.9403,3.9403,3.9378,3.9376,3.9375,3.9374,3.9412,3.9414,3.9417,0,0,0,0,0,0,0,0,0,0,0,0,0,3.9312,3.9275,3.9365,3.9357,3.9357,3.9402,3.9403,3.9403,3.9378,3.9376,3.9375,3.9373,3.9411,3.9414,3.9417,3.9471,0,0,3.9427,3.9428,0,0,0,0,0,0,0,0,3.931,3.9315,3.9358,3.9358,3.9358,3.9383,3.9384,3.9426,3.9378,3.937,3.9374,3.9372,3.9404,3.9408,3.9419,3.9473,3.9475,3.9427,3.9429,3.943,3.9431,0,0,0,0,0,0,0,3.9307,3.9314,3.938,3.9359,3.9359,3.9353,3.9357,3.9392,3.9396,3.9371,3.9369,3.9374,3.9404,3.9416,3.9419,3.9475,3.9427,3.943,3.9432,3.9433,3.9579,3.958,0,0,0,0,0,0,3.9305,3.9312,3.9378,3.9381,3.9329,3.9356,3.936,3.9377,3.9396,3.9397,3.9375,3.9372,3.9411,3.9416,3.9421,3.9486,3.943,3.9433,3.9435,3.9577,3.9579,3.9581,0,0,0,0,0,0,3.9303,3.9311,3.9377,3.9346,3.9354,3.9359,3.9379,3.9379,3.939,3.9399,3.94,3.9386,3.941,3.9416,3.9459,3.9487,3.9435,3.9437,3.9574,3.9577,3.958,3.9618,0,0,0,0,0,0,3.9301,3.9311,3.9331,3.9346,3.9355,3.9415,3.938,3.9381,3.9396,3.9393,3.941,3.9411,3.9409,3.9455,3.9463,3.9491,3.944,3.9572,3.9576,3.9579,3.9614,3.9622,3.9628,0,0,0,0,0,3.9297,3.9339,3.9332,3.934,3.938,3.9416,3.9421,3.9418,3.9398,3.9419,3.9425,3.9411,3.9483,3.9459,3.9468,3.9497,3.957,3.9574,3.9579,3.9611,3.962,3.9628,0,0,0,0,0,0,3.9326,3.9341,3.9333,3.9381,3.9398,3.9412,3.9437,3.9428,3.945,3.9446,3.9441,3.9445,3.9491,3.9498,3.9472,3.9552,3.9524,3.953,3.9545,3.9554,3.9561,3.9558,3.9443,0,0,0,0,0,3.9338,3.9365,3.9377,3.9419,3.9427,3.9431,3.9447,3.9443,3.946,3.9467,3.9476,3.9493,3.952,3.9537,3.9562,3.9616,3.962,3.964,3.9648,3.9653,3.9659,3.9689,3.9699,3.9596,3.9596,3.9596,0,0,3.9362,3.9374,3.9392,3.9425,3.9437,3.9466,3.9437,3.9469,3.9491,3.9471,3.9513,3.9521,3.954,3.9589,3.9611,3.9596,3.9688,3.9659,3.9663,3.9666,3.9695,3.9704,3.9713,3.9599,3.9598,3.9598,0,0,3.9422,3.9434,3.947,3.9484,3.9504,3.9506,3.9515,3.9532,3.9536,3.9578,3.9565,3.9591,3.9637,3.9652,3.9665,3.9735,3.9723,3.9743,3.978,3.9809,3.9817,3.9825,3.985,3.9859,3.9749,3.9749,3.9749,0,3.945,3.9494,3.949,3.9524,3.9539,3.9524,3.9562,3.9575,3.9602,3.9614,3.9598,3.9657,3.9668,3.9721,3.9738,3.975,3.976,3.974,3.9817,3.9824,3.983,3.9855,3.9864,3.9751,3.9751,3.975,3.975,0,3.9528,3.9558,3.9586,3.9613,3.9632,3.9667,3.967,3.9689,3.9685,3.969,3.9734,3.9748,3.9776,3.9789,3.9784,3.9842,3.9833,3.9817,3.9788,3.9843,3.9865,3.9875,3.9754,3.9754,3.9753,3.9752,0,0,3.9604,3.9631,3.9641,3.9655,3.9676,3.97,3.9736,3.9764,3.9782,3.9802,3.9832,3.9873,3.9859,3.9874,3.9872,3.9898,3.9953,3.9879,3.988,3.9893,4.0019,4.0031,4.0041,3.9946,3.9948,3.9949,4.0018,0,3.9666,3.9728,3.9727,3.9785,3.9814,3.9802,3.9833,3.985,3.9857,3.9883,3.989,3.9919,3.9898,3.9908,3.9933,3.9941,3.9979,3.9936,3.9975,3.9976,3.997,4.0053,4.0065,4.0129,4.0027,4.0028,4.0029,0,3.9745,3.9769,3.983,3.985,3.9862,3.989,3.9917,3.9942,3.9962,3.9965,3.9984,3.9978,4.0015,3.9987,4.0039,4.001,4.0026,4.0033,4.0036,4.0038,4.0005,4.0058,4.0149,4.0158,4.0043,4.0042,4.0041,0,3.9796,3.9843,3.9886,3.9897,3.9921,3.9942,3.9953,3.9971,3.9989,4.0014,4.0025,4.0054,4.0069,4.0092,4.0094,4.0072,4.0147,4.0118,4.0151,4.0151,4.0166,4.0165,4.0261,4.0177,4.0177,4.0177,4.0177,0,3.9865,3.9902,3.9909,3.9935,3.9978,3.9978,4.002,4.003,4.0047,4.0076,4.0067,4.0094,4.0096,4.0124,4.0127,4.017,4.0177,4.0181,4.0181,4.0182,4.0181,4.0191,4.0187,4.018,4.0179,4.0179,4.0178,0,3.9928,3.9934,3.998,4.0,4.0006,4.0036,4.0053,4.0079,4.0086,4.0122,4.0131,4.0141,4.0174,4.0179,4.0218,4.0219,4.0272,4.0268,4.0265,4.0264,4.0297,4.0294,4.0402,4.0417,4.0324,4.0325,4.0326,0,3.9971,4.0,4.0023,4.0042,4.0055,4.0085,4.0104,4.0105,4.0125,4.0152,4.0175,4.0208,4.0233,4.0287,4.0298,4.0329,4.0325,4.0361,4.0329,4.0329,4.0326,4.0324,4.0327,4.0366,4.0367,4.0368,4.0369,0,4.0047,4.0049,4.0077,4.0106,4.0129,4.0152,4.0173,4.0189,4.0194,4.0218,4.0252,4.0272,4.0312,4.0345,4.0376,4.0388,4.038,4.0379,4.0389,4.0389,4.0386,4.0389,4.0282,4.0376,4.0376,4.0375,4.0375,4.0374,4.0102,4.0128,4.0149,4.018,4.0197,4.0218,4.0244,4.0254,4.0283,4.0316,4.0316,4.0353,4.0375,4.0415,4.043,4.046,4.0448,4.0462,4.0465,4.0468,4.0472,4.0382,4.0466,4.0465,4.0465,4.0465,4.0465,0,4.0178,4.0192,4.022,4.0252,4.0277,4.0268,4.0292,4.0314,4.0347,4.0369,4.0395,4.0435,4.0468,4.0482,4.0515,4.0536,4.0533,4.0544,4.0543,4.0546,4.048,4.0469,4.0546,4.0546,4.0546,4.0546,4.0546,4.0546,4.022,4.0264,4.0269,4.0322,4.0336,4.0373,4.0387,4.0407,4.0424,4.047,4.0497,4.0507,4.0526,4.056,4.059,4.0593,4.0605,4.0618,4.062,4.0558,4.055,4.0542,4.0532,4.0621,4.0621,4.0683,4.0684,4.0685]},{"header":{"parameterUnit":"m.s-1","parameterCategory":1,"la1":30.2991,"la2":30.254,"lo1":-89.0895,"lo2":-89.0444,"dy":0.0017,"dx":0.0017,"nx":28,"ny":28,"refTime":"2025-04-11T03:00:00:Z","depth":0,"parameterNumber":3,"parameterNumberName":"V-component_of_WINDS"},"data":[0,0,0,0,0,0,0,0,0,0,0,0,0,0,0,0,0,0,0,0,0,0,0,0,0,0,0,0,0,0,0,0,0,0,0,0,0,0,0,0,0,0,0,0,0,0,0,0,0,0,0,0,0,0,0,0,0,0,-5.6923,-5.6923,0,-5.6913,-5.6913,-5.6913,-5.6884,-5.6884,-5.6883,-5.6882,-5.6871,-5.6872,-5.6872,0,0,0,0,0,0,0,0,0,0,0,0,0,-5.6915,-5.6916,-5.6923,-5.6923,-5.6923,-5.6914,-5.6913,-5.6913,-5.6884,-5.6884,-5.6883,-5.6882,-5.6871,-5.6871,-5.6872,0,0,0,0,0,0,0,0,0,0,0,0,0,-5.6913,-5.6916,-5.6923,-5.6907,-5.6906,-5.6914,-5.6913,-5.6913,-5.6884,-5.6883,-5.6883,-5.6882,-5.6871,-5.6871,-5.6872,-5.6894,0,0,-5.6873,-5.6873,0,0,0,0,0,0,0,0,-5.6914,-5.6914,-5.691,-5.6908,-5.6907,-5.6899,-5.6907,-5.6907,-5.6885,-5.6892,-5.6882,-5.6881,-5.6881,-5.6881,-5.6881,-5.6893,-5.6893,-5.6873,-5.6874,-5.6874,-5.6874,0,0,0,0,0,0,0,-5.6914,-5.6914,-5.6919,-5.6909,-5.6908,-5.69,-5.6899,-5.6906,-5.6892,-5.6892,-5.689,-5.6889,-5.688,-5.6881,-5.6881,-5.6893,-5.6873,-5.6874,-5.6874,-5.6874,-5.6923,-5.6924,0,0,0,0,0,0,-5.6916,-5.6914,-5.6919,-5.6919,-5.6908,-5.6901,-5.69,-5.6902,-5.6892,-5.689,-5.689,-5.6888,-5.688,-5.688,-5.688,-5.6905,-5.6874,-5.6874,-5.6874,-5.6922,-5.6924,-5.6925,0,0,0,0,0,0,-5.6916,-5.6917,-5.692,-5.6916,-5.6916,-5.6902,-5.6906,-5.6903,-5.6903,-5.6891,-5.6888,-5.6893,-5.688,-5.6879,-5.6891,-5.6904,-5.6874,-5.6875,-5.6921,-5.6923,-5.6924,-5.6956,0,0,0,0,0,0,-5.6916,-5.6917,-5.6925,-5.6916,-5.6916,-5.6931,-5.6906,-5.6903,-5.6904,-5.6901,-5.6893,-5.689,-5.6879,-5.689,-5.6891,-5.6904,-5.6875,-5.692,-5.6922,-5.6924,-5.6953,-5.6958,-5.6962,0,0,0,0,0,-5.6916,-5.6934,-5.6926,-5.6927,-5.6926,-5.6932,-5.6931,-5.6918,-5.6905,-5.6913,-5.6906,-5.6891,-5.6903,-5.6892,-5.6893,-5.6906,-5.6919,-5.6921,-5.6924,-5.6951,-5.6957,-5.6962,0,0,0,0,0,0,-5.6944,-5.6932,-5.6923,-5.6939,-5.6937,-5.6927,-5.6936,-5.6925,-5.6925,-5.6922,-5.6906,-5.6904,-5.6918,-5.6913,-5.6901,-5.6927,-5.6909,-5.6911,-5.6929,-5.6935,-5.6939,-5.694,-5.6876,0,0,0,0,0,-5.6952,-5.6958,-5.6947,-5.6962,-5.6962,-5.695,-5.6951,-5.6942,-5.6938,-5.6937,-5.693,-5.6927,-5.693,-5.6932,-5.6935,-5.6953,-5.6951,-5.6963,-5.6967,-5.6971,-5.6973,-5.6983,-5.6988,-5.6932,-5.6932,-5.6932,0,0,-5.6968,-5.6963,-5.6967,-5.6968,-5.6965,-5.6971,-5.6949,-5.6956,-5.6961,-5.6938,-5.6948,-5.6943,-5.6939,-5.6954,-5.6961,-5.6951,-5.6989,-5.6974,-5.6977,-5.6977,-5.6986,-5.6991,-5.6996,-5.6934,-5.6934,-5.6933,0,0,-5.7001,-5.6998,-5.701,-5.7008,-5.7004,-5.6996,-5.7,-5.6992,-5.6988,-5.6999,-5.6982,-5.6987,-5.6993,-5.6991,-5.699,-5.7025,-5.7011,-5.7026,-5.7049,-5.7059,-5.7063,-5.7067,-5.7079,-5.7084,-5.7029,-5.7029,-5.7029,0,-5.7022,-5.7031,-5.7018,-5.7027,-5.7028,-5.7009,-5.7021,-5.702,-5.7017,-5.7018,-5.7007,-5.7015,-5.7011,-5.7025,-5.7034,-5.7034,-5.7037,-5.7026,-5.7064,-5.7067,-5.7071,-5.7082,-5.7087,-5.7031,-5.703,-5.703,-5.703,0,-5.7056,-5.7063,-5.7074,-5.7072,-5.7074,-5.7085,-5.7074,-5.7077,-5.7068,-5.7061,-5.7073,-5.7068,-5.7069,-5.7072,-5.7062,-5.7085,-5.708,-5.7067,-5.7047,-5.7078,-5.7088,-5.7093,-5.7033,-5.7033,-5.7032,-5.7032,0,0,-5.7105,-5.7097,-5.7101,-5.7101,-5.7096,-5.7101,-5.7112,-5.7113,-5.7117,-5.7116,-5.7124,-5.7131,-5.7119,-5.7119,-5.7109,-5.7118,-5.7146,-5.7104,-5.7104,-5.7112,-5.7171,-5.718,-5.7185,-5.7138,-5.7138,-5.7139,-5.7171,0,-5.7136,-5.7153,-5.7142,-5.7161,-5.7167,-5.715,-5.7159,-5.7157,-5.7152,-5.7156,-5.715,-5.7155,-5.714,-5.7139,-5.7148,-5.7141,-5.7157,-5.7139,-5.7144,-5.7145,-5.7145,-5.7191,-5.72,-5.7231,-5.7175,-5.7176,-5.7177,0,-5.7173,-5.7175,-5.7195,-5.719,-5.7192,-5.7201,-5.7202,-5.7207,-5.7205,-5.72,-5.7201,-5.719,-5.7199,-5.7182,-5.7195,-5.7182,-5.7184,-5.7182,-5.7183,-5.7182,-5.7162,-5.719,-5.724,-5.7245,-5.7183,-5.7182,-5.7182,0,-5.7206,-5.7214,-5.7226,-5.7227,-5.7222,-5.7228,-5.7226,-5.7223,-5.7225,-5.7227,-5.7228,-5.7231,-5.7232,-5.7234,-5.7224,-5.7212,-5.7239,-5.722,-5.7235,-5.7235,-5.724,-5.7239,-5.729,-5.7243,-5.7243,-5.7243,-5.7243,0,-5.7241,-5.7254,-5.7241,-5.7249,-5.7263,-5.7251,-5.7265,-5.7261,-5.7259,-5.7266,-5.7252,-5.7258,-5.7245,-5.725,-5.7242,-5.7255,-5.7255,-5.7252,-5.7249,-5.7252,-5.7253,-5.7252,-5.725,-5.7244,-5.7244,-5.7243,-5.7243,0,-5.7279,-5.7271,-5.7284,-5.7279,-5.7278,-5.7289,-5.7284,-5.7291,-5.7286,-5.7294,-5.7296,-5.7287,-5.7293,-5.7283,-5.7287,-5.7282,-5.7299,-5.7294,-5.73,-5.7298,-5.7313,-5.7311,-5.7364,-5.737,-5.732,-5.7321,-5.7321,0,-5.7301,-5.7311,-5.7307,-5.7311,-5.731,-5.7317,-5.7319,-5.7309,-5.7312,-5.7312,-5.7319,-5.7324,-5.7327,-5.7337,-5.733,-5.7334,-5.7328,-5.7346,-5.7328,-5.7331,-5.7327,-5.7326,-5.7327,-5.7349,-5.735,-5.735,-5.7351,0,-5.7342,-5.7338,-5.7342,-5.7346,-5.735,-5.7352,-5.7354,-5.7358,-5.7347,-5.7351,-5.7357,-5.736,-5.7365,-5.737,-5.7372,-5.737,-5.7358,-5.7357,-5.736,-5.7363,-5.7366,-5.7364,-5.7309,-5.7355,-5.7355,-5.7354,-5.7354,-5.7354,-5.7372,-5.738,-5.7379,-5.7385,-5.7385,-5.7387,-5.7393,-5.739,-5.7395,-5.7398,-5.7392,-5.74,-5.7399,-5.7401,-5.74,-5.7406,-5.7398,-5.7403,-5.7404,-5.7405,-5.7407,-5.7366,-5.7406,-5.7406,-5.7406,-5.7406,-5.7406,0,-5.7411,-5.741,-5.7416,-5.7419,-5.7424,-5.7414,-5.7415,-5.742,-5.7427,-5.7427,-5.7431,-5.7439,-5.7444,-5.7439,-5.7443,-5.7448,-5.7443,-5.745,-5.7449,-5.7448,-5.7415,-5.7411,-5.7454,-5.7454,-5.7454,-5.7454,-5.7454,-5.7454,-5.7432,-5.7445,-5.7441,-5.7454,-5.7453,-5.7461,-5.7463,-5.7465,-5.7465,-5.7474,-5.7478,-5.7476,-5.7474,-5.7478,-5.7482,-5.7481,-5.7482,-5.7491,-5.7487,-5.7455,-5.7451,-5.7446,-5.7442,-5.7491,-5.7491,-5.752,-5.752,-5.7521]}]]